Location: Poughquag
(41.6090°N, 73.6820°W)
Time: 16:47:35
(UTC-04:00)

Altair - Pass Details

Date: 03 December 2023
Orbit: 1501 x 1682 km, 47.2° (Epoch: 06 October)

Event Time Altitude Azimuth Distance (km) Brightness Sun altitude
Rises 06:47:18 0° 199° (SSW) 4,855 10.2 -3.6°
Reaches altitude 10° 06:50:54 10° 190° (S) 3,846 9.8 -3.0°
Maximum altitude 06:59:09 32° 132° (SE) 2,466 9.7 -1.6°
Drops below altitude 10° 07:07:09 10° 74° (ENE) 3,736 10.3 -0.3°
Sets 07:10:33 0° 65° (ENE) 4,698 10.6 0.3°
